Аэропорт
Дашогуз (UTAT)

 UTAT / TAZ
ЗЦ Центральная Азия
Дашогуз (UTAT)
Дашогуз (UTAT)
 41.76110, 59.82670  / 272 ft

 UTAT 101800Z 36006KT CAVOK 24/11 Q1007 R26/CLRD70 NOSIG
 TAF UTAT 101030Z 1012/1112 33018G28KT CAVOK TEMPO 1012/1018 27016KT
UTAT_aip_1705
показать схемы

Аэропорт Дашогуз — аэропорт в 10 км на юго-запад от Дашогуза, Туркмения. Основан в 1924 году.

Дашогуз является одним из старейших аэропортов Туркмении. Первый авиарейс выполнен в 1924 году. В 2009 году завершена реконструкция здания аэровокзала. 



2020 © VATRUS division (Privacy Policy)